DELTA 1 DEB, 10749

Orbit data source: Space-Track

DELTA 1 DEB, 10749 is space debris in SSO originally from a launch on Thu, 29 Jul 1976 UTC launched from the Air Force Western Test Range (AFWTR). Debris objects in space refer to the collection of defunct objects orbiting the Earth. Examples of debris include non-operational satellites, rocket bodies, and fragments generated from explosions, collisions, or faulty payload assembly.

Loading next visibility...
Identifier
10749, 1976-077AW
Orbit
SSO
Country
Flag of USUS
Related business
Manufacturer
Unknown
Mission
Spacecraft
Bus & Motor
Unknown
Mass
Unknown
Launch date (UTC)
1976-07-29 (50 years ago)
Launch vehicle
Unknown
Launch site
Air Force Western Test Range (AFWTR)
Object type
Payload
Rocket body
Debris
Shape & HBR
Unknown shape, 0.2 m
Radar Cross Section
Medium (>0.1 m² and <1 m²)

Expand to show TLE details & history
Last TLE update: 12 hours ago

TLE from 12 hours ago
0 DELTA 1 DEB
1 10749U 76077AW  26255.72345698 -.00000028  00000-0  14889-3 0  9996
2 10749 102.3425 343.2340 0090843 209.3284 319.6657 12.23538045239296
Epoch: 2026-09-12T17:21Z
TLE epoch observation values (Epoch: 2026-09-12T17:21:46.683Z)
Latitude
11.3721°
Longitude
-86.42883°
Altitude
1,524.114 km
Speed
7.129 km/s
True Right ascension
11h 02m 58s
True Declination
11° 18' 44"
Sunlit
Object was in daylight at epoch
Visualization orbit readout
Latitude
Unknown
Longitude
Unknown
Altitude
Unknown
Speed
Unknown
Apparent Right ascension
Unknown
Apparent Declination
Unknown
Sunlit
N/A
Visualization observer readout
Local Sidereal Time
21:46:13
Azimuth
Unknown
Elevation
Unknown
Doppler factor
Unknown
Orbital elements
Apogee altitude
1,647.032 km
Perigee altitude
1,502.538 km
Semi-major axis
7,952.922 km
Eccentricity
0.00908
Inclination
102.3425°
RAAN
343.234°
Arg. of periapsis
209.3284°
True anomaly
318.98606°
Mean anomaly
319.6657°
Eccentric anomaly
319.32647°
Mean motion
3.06022 °/min
Orbital period
117.64 mins
BSTAR
0.00014889
Loading maneuver chart data...
Computing Atmospheric mass density...
Loading historical data...
Loading historical data...
Loading historical data...
Loading historical data...
Loading historical data...
Loading historical data...
Loading historical data...

Documentation

Showing up to 5 results
|